Location: Erlenbrunn
(49.1717°N, 7.6142°E)
Time: 09:04:07
(UTC+00:00)

Cosmos 1818 - Pass Details

Date: 25 November 2020
Orbit: 773 x 800 km, 65.0° (Epoch: 25 January)

Event Time Altitude Azimuth Distance (km) Brightness Sun altitude
Rises 16:19:52 0° 320° (NW) 3,313 7.0 -6.9°
Reaches altitude 10° 16:22:18 10° 321° (NW) 2,381 6.3 -7.3°
Maximum altitude 16:27:48 89° 241° (WSW) 807 3.7 -8.1°
Drops below altitude 10° 16:33:17 10° 143° (SE) 2,368 5.9 -8.9°
Sets 16:35:42 0° 144° (SE) 3,293 6.6 -9.3°
